Погода в Волхове

Россия / Санкт-Петербург и Ленинградская область     59°55′00″N   32°19′53″E
темп.,
°C
ветер,
м/с
пор.,
м/с
влажн.,
%
обл.,
%
осадки,
мм/ч
давл.,
гПа
погр.,
м
22 мая, вс
вс2200:00+3всв311650 0.0 1013387
03:00+1всв28785 0.0 1013191
06:00+2всв26710 0.0 1013211
09:00+6св35430 0.0 10131093
12:00+9ссв56360 0.0 10131401
15:00+9с56375 0.0 10131198
18:00+8с46422 0.0 1012626
21:00+4ссз22694 0.0 101243
23 мая, пн
пн2300:00+1ссв00785 0.0 101210
03:00+1з117610 0.0 101210
06:00+4с266836 0.0 1012258
09:00+7с48455 0.0 1011637
12:00+9с59425 0.0 1011856
15:00+11ссз59375 0.0 10101129
18:00+12ссз595224 0.0 10091146
21:00+7ссз3874100 0.0 1009219
24 мая, вт
вт2400:00+5ссв2865100 0.0 1009192
03:00+3с2960100 0.0 1010272
06:00+5с41055100 0.0 1011605
09:00+6с5848100 0.0 1012715
12:00+8с584971 0.0 1013957
15:00+9с485178 0.0 10141194
18:00+8с4661100 0.0 1014916
21:00+6ссв247791 0.0 1015131
25 мая, ср
ср2500:00+4вюв118293 0.0 101623
03:00+4вюв117885 0.0 101710
06:00+5ююв007248 0.0 1017121
09:00+10ссв115527 0.0 1016919
12:00+13с334813 0.0 10151199
15:00+13с44476 0.0 1014915
18:00+11с33505 0.0 1014586
21:00+6св227947 0.0 101330
26 мая, чт
чт2600:00+5вюв2792100 0.0 1012122
03:00+4вюв269385 0.0 1011131
06:00+6вюв388218 0.0 1009200
09:00+11вюв465765 0.0 1006591
12:00+16в453924 0.0 10031103
15:00+19вюв343296 0.0 10011685
18:00+18юв1338100 0.0 10001373
21:00+11зсз2588100 0.0 1001174